Terminal Aerodrome Forecast
Issued by NWS Wilmington, OH

Current Version | Previous Version | Text Only | Print | Product List | Glossary Off
Versions: 1 2 3 4 5 6 7 8 9 10 11 12 13 14 15 16

000
FTUS41 KILN 212329 AAB
TAFDAY
TAF AMD
KDAY 212329Z 2123/2218 29010KT P6SM VCSH BKN035 OVC250
     FM220600 32009KT P6SM BKN025 OVC250
     FM221300 35009KT P6SM VCSH BKN035 OVC090
     FM221500 05012G23KT P6SM VCSH SCT025 OVC090=

USA.gov is the U.S. government's official web portal to all federal, state and local government web resources and services.